Retour au catalogue

H-2A R/B

ActifGTO
NORAD 27369·ROCKET BODY·🇯🇵 Japan

Lancé Feb 4, 2002 depuis Tanegashima Space Center

Loading…

TLE

PériméSource: Space-Track

Époque: Sep 9, 2026, 06:59 UTC

1 27369U 02003C   26252.29112086 -.00000032  00000-0  00000-0 0  9994
2 27369  23.7516 114.8487 6892469 293.5051  10.8010  2.37189874212504

Suivez H-2A R/B en temps réel avec AllMySat

Download on the App Store